Location: Marse
(42.1502°N, 110.9866°W)
Time: 06:51:07
(UTC+00:00)

ZACube-1 - Pass Details

Date: 04 July 2022
Orbit: 582 x 661 km, 97.6° (Epoch: 11 August)

Event Time Altitude Azimuth Distance (km) Brightness Sun altitude
Rises 11:11:21 0° 14° (NNE) 2,965 ? -7.1°
Reaches altitude 10° 11:13:34 10° 16° (NNE) 2,061 ? -6.8°
Maximum altitude 11:18:05 74° 102° (ESE) 687 ? -6.2°
Drops below altitude 10° 11:22:36 10° 187° (S) 2,070 ? -5.5°
Sets 11:24:50 0° 189° (S) 2,979 ? -5.2°
